[[{"header":{"parameterUnit":"m.s-1","parameterCategory":2,"la1":30.2991,"la2":30.254,"lo1":-89.0895,"lo2":-89.0444,"dy":0.0017,"dx":0.0017,"nx":28,"ny":28,"refTime":"2024-03-14T09:00:00:Z","depth":"0","parameterNumber":2,"parameterNumberName":"U-component_of_CURRENTS"},"data":[0,0,0,0,0,0,0,0,0,0,0,0,0,0,0,0,0,0,0,0,0,0,0,0,0,0,0,0,0,0,0,0,0,0,0,0,0,0,0,0,0,0,0,0,0,0,0,0,0,0,0,0,0,0,0,0,0,0,0.265,0.265,0,0.264,0.2639,0.2639,0.2589,0.2588,0.2587,0.2586,0.2462,0.2459,0.2457,0,0,0,0,0,0,0,0,0,0,0,0,0,0.2674,0.2674,0.265,0.265,0.265,0.264,0.2639,0.2639,0.2589,0.2588,0.2586,0.2585,0.2462,0.246,0.2457,0,0,0,0,0,0,0,0,0,0,0,0,0,0.2662,0.2673,0.265,0.2625,0.2623,0.264,0.2639,0.2639,0.2589,0.2588,0.2586,0.2585,0.2463,0.246,0.2457,0.2466,0,0,0.2446,0.2444,0,0,0,0,0,0,0,0,0.2663,0.2661,0.2628,0.2627,0.2624,0.2615,0.2603,0.2576,0.259,0.26,0.2586,0.2584,0.2505,0.2498,0.2499,0.246,0.2455,0.2446,0.2443,0.2442,0.2441,0,0,0,0,0,0,0,0.2664,0.2661,0.2644,0.2629,0.2626,0.2631,0.2627,0.2598,0.2558,0.2599,0.2596,0.2598,0.2502,0.2502,0.2495,0.2453,0.2446,0.2442,0.244,0.2439,0.2415,0.2416,0,0,0,0,0,0,0.2667,0.2662,0.2644,0.2644,0.2642,0.2632,0.2627,0.2618,0.256,0.2552,0.2599,0.2596,0.2509,0.2499,0.249,0.251,0.2442,0.2439,0.2437,0.2414,0.2415,0.2417,0,0,0,0,0,0,0.2668,0.2666,0.2645,0.2655,0.2653,0.2633,0.2624,0.2619,0.2623,0.2562,0.255,0.2608,0.2507,0.2495,0.2492,0.2503,0.2437,0.2434,0.2412,0.2414,0.2416,0.254,0,0,0,0,0,0,0.2668,0.2665,0.267,0.2655,0.2652,0.2661,0.2625,0.262,0.2627,0.2622,0.2566,0.2553,0.2505,0.2498,0.2489,0.2497,0.2431,0.241,0.2413,0.2415,0.2534,0.2546,0.2556,0,0,0,0,0,0.2669,0.2674,0.267,0.2668,0.2655,0.2662,0.2662,0.2641,0.2629,0.2638,0.2616,0.2554,0.2508,0.2498,0.2486,0.2494,0.2409,0.2412,0.2415,0.2529,0.2544,0.2556,0,0,0,0,0,0,0.2673,0.267,0.2664,0.2664,0.2668,0.2654,0.266,0.2656,0.2648,0.2638,0.2586,0.2573,0.2569,0.2524,0.2514,0.2495,0.2443,0.2444,0.2533,0.2546,0.2557,0.2554,0.2428,0,0,0,0,0,0.2682,0.2691,0.2686,0.2688,0.269,0.2682,0.2686,0.2674,0.2664,0.2659,0.2627,0.2592,0.2575,0.2557,0.2527,0.2526,0.2502,0.2519,0.2531,0.254,0.2531,0.2536,0.2547,0.2428,0.2428,0.2428,0,0,0.2681,0.2684,0.2686,0.2692,0.2689,0.2695,0.2679,0.2685,0.2694,0.2646,0.2647,0.2631,0.2587,0.2587,0.2579,0.2548,0.2569,0.2545,0.2554,0.2538,0.2541,0.2553,0.2563,0.243,0.243,0.2429,0,0,0.2683,0.2689,0.2695,0.2704,0.2712,0.2713,0.2722,0.2718,0.2719,0.2733,0.2704,0.2712,0.2669,0.2655,0.2639,0.2696,0.2633,0.2674,0.2721,0.2728,0.2738,0.2746,0.2763,0.2772,0.2674,0.2674,0.2674,0,0.2681,0.2686,0.27,0.2708,0.2716,0.2724,0.273,0.2742,0.2742,0.2752,0.2738,0.2728,0.2701,0.2712,0.2737,0.272,0.2713,0.2677,0.2744,0.2751,0.2758,0.2772,0.278,0.2681,0.268,0.2679,0.2679,0,0.2682,0.2692,0.2697,0.2712,0.273,0.2738,0.2755,0.2775,0.2785,0.2793,0.2816,0.2809,0.2794,0.28,0.2787,0.2818,0.2798,0.2766,0.2713,0.2777,0.2789,0.2795,0.269,0.2687,0.2685,0.2684,0,0,0.2648,0.269,0.2689,0.2703,0.2732,0.2744,0.2776,0.2806,0.2825,0.2845,0.2871,0.2886,0.2885,0.2869,0.2861,0.288,0.2947,0.2848,0.2845,0.287,0.2972,0.2909,0.2909,0.2926,0.2927,0.2928,0.2974,0,0.2639,0.2666,0.2686,0.271,0.2727,0.2755,0.2783,0.2817,0.2846,0.2877,0.29,0.2914,0.2909,0.2913,0.2937,0.2939,0.2962,0.2938,0.2899,0.2898,0.2838,0.2913,0.2735,0.2756,0.298,0.2981,0.2981,0,0.262,0.2651,0.2677,0.2722,0.2728,0.2743,0.2796,0.2821,0.2875,0.2896,0.2929,0.2941,0.2988,0.2966,0.3007,0.2991,0.2988,0.2993,0.2994,0.2886,0.2844,0.2719,0.2757,0.2619,0.299,0.2989,0.2988,0,0.26,0.2636,0.2665,0.2678,0.2731,0.2747,0.2772,0.2825,0.2854,0.291,0.2935,0.2979,0.3002,0.3018,0.3039,0.3023,0.3079,0.3048,0.2991,0.2987,0.28,0.2777,0.2695,0.3067,0.3067,0.3067,0.3067,0,0.2583,0.26,0.2657,0.2671,0.2705,0.2737,0.277,0.2805,0.2854,0.2897,0.2938,0.298,0.3015,0.3053,0.3059,0.3052,0.3091,0.301,0.2995,0.2841,0.2822,0.2661,0.2643,0.3069,0.3068,0.3068,0.3068,0,0.2553,0.2589,0.2626,0.2682,0.2697,0.2721,0.2768,0.2798,0.2838,0.2896,0.2916,0.2991,0.3053,0.3083,0.3119,0.3067,0.2966,0.3052,0.2879,0.2842,0.2636,0.2632,0.2502,0.2448,0.2992,0.2991,0.2989,0,0.2543,0.2561,0.263,0.2658,0.268,0.2717,0.2749,0.2792,0.2829,0.2908,0.2942,0.3016,0.3084,0.3113,0.3045,0.3032,0.294,0.2819,0.2747,0.2608,0.2593,0.2532,0.2492,0.2566,0.2561,0.2558,0.2555,0,0.253,0.2554,0.2592,0.2657,0.2695,0.2729,0.2772,0.2796,0.2856,0.29,0.2981,0.304,0.3061,0.2974,0.2921,0.287,0.2646,0.2743,0.2627,0.2281,0.2177,0.2121,0.2574,0.2522,0.2525,0.2528,0.2529,0.2531,0.2521,0.2548,0.2609,0.2655,0.2703,0.2737,0.2738,0.2791,0.2837,0.2864,0.2962,0.2967,0.2844,0.2762,0.2697,0.2362,0.2474,0.2197,0.2219,0.218,0.2067,0.2464,0.2374,0.2376,0.2378,0.238,0.2382,0,0.2521,0.2555,0.2604,0.2662,0.2687,0.2717,0.2752,0.273,0.2758,0.2789,0.283,0.266,0.2486,0.2328,0.1984,0.1822,0.1751,0.1723,0.1568,0.1573,0.192,0.1836,0.1587,0.1587,0.1588,0.1588,0.1588,0.1588,0.2528,0.2566,0.2586,0.2626,0.2654,0.2642,0.2638,0.2615,0.2604,0.2491,0.2372,0.2335,0.2086,0.1725,0.1385,0.1341,0.1248,0.1168,0.1253,0.1445,0.1489,0.1531,0.1442,0.1115,0.1114,0.0776,0.0774,0.0772]},{"header":{"parameterUnit":"m.s-1","parameterCategory":2,"la1":30.2991,"la2":30.254,"lo1":-89.0895,"lo2":-89.0444,"dy":0.0017,"dx":0.0017,"nx":28,"ny":28,"refTime":"2024-03-14T09:00:00:Z","depth":"0","parameterNumber":3,"parameterNumberName":"V-component_of_CURRENTS"},"data":[0,0,0,0,0,0,0,0,0,0,0,0,0,0,0,0,0,0,0,0,0,0,0,0,0,0,0,0,0,0,0,0,0,0,0,0,0,0,0,0,0,0,0,0,0,0,0,0,0,0,0,0,0,0,0,0,0,0,-0.0049,-0.0049,0,-0.004,-0.004,-0.004,-0.0043,-0.0043,-0.0043,-0.0043,-0.0066,-0.0067,-0.0067,0,0,0,0,0,0,0,0,0,0,0,0,0,-0.008,-0.008,-0.0049,-0.0049,-0.0049,-0.004,-0.004,-0.004,-0.0043,-0.0043,-0.0043,-0.0043,-0.0066,-0.0067,-0.0067,0,0,0,0,0,0,0,0,0,0,0,0,0,-0.0069,-0.0079,-0.0049,-0.0048,-0.0048,-0.004,-0.004,-0.004,-0.0043,-0.0043,-0.0043,-0.0043,-0.0066,-0.0067,-0.0067,-0.007,0,0,-0.007,-0.007,0,0,0,0,0,0,0,0,-0.007,-0.0068,-0.0049,-0.0048,-0.0048,-0.0041,-0.0059,-0.0051,-0.0043,-0.0046,-0.0043,-0.0043,-0.006,-0.0061,-0.006,-0.0071,-0.0072,-0.007,-0.007,-0.0071,-0.0071,0,0,0,0,0,0,0,-0.0071,-0.0069,-0.0047,-0.0048,-0.0048,-0.0051,-0.005,-0.0057,-0.0054,-0.0046,-0.0046,-0.0042,-0.006,-0.006,-0.0061,-0.0072,-0.007,-0.0071,-0.0071,-0.0071,-0.0071,-0.007,0,0,0,0,0,0,-0.0069,-0.0069,-0.0047,-0.0046,-0.0058,-0.0051,-0.0049,-0.0044,-0.0053,-0.0054,-0.0042,-0.0043,-0.0058,-0.006,-0.0062,-0.006,-0.0071,-0.0071,-0.0072,-0.0071,-0.007,-0.007,0,0,0,0,0,0,-0.0069,-0.0067,-0.0047,-0.0057,-0.0054,-0.005,-0.0044,-0.0044,-0.0041,-0.005,-0.0052,-0.004,-0.0058,-0.0061,-0.0064,-0.0061,-0.0072,-0.0073,-0.0072,-0.0071,-0.007,-0.006,0,0,0,0,0,0,-0.007,-0.0067,-0.0065,-0.0057,-0.0054,-0.0036,-0.0044,-0.0044,-0.0039,-0.0039,-0.0048,-0.0051,-0.0059,-0.0063,-0.0065,-0.0063,-0.0073,-0.0072,-0.0071,-0.007,-0.0061,-0.0059,-0.0057,0,0,0,0,0,-0.0071,-0.0066,-0.0065,-0.0062,-0.005,-0.0036,-0.0035,-0.0033,-0.0039,-0.0033,-0.0041,-0.005,-0.0058,-0.0063,-0.0066,-0.0064,-0.0073,-0.0072,-0.007,-0.0062,-0.0059,-0.0057,0,0,0,0,0,0,-0.0081,-0.0065,-0.0064,-0.0055,-0.0044,-0.0036,-0.0032,-0.0031,-0.0032,-0.0035,-0.0047,-0.0049,-0.005,-0.0056,-0.0061,-0.0059,-0.0066,-0.0065,-0.0058,-0.0056,-0.0054,-0.0052,-0.0074,0,0,0,0,0,-0.0081,-0.0072,-0.0058,-0.0051,-0.0045,-0.0038,-0.0034,-0.0031,-0.0029,-0.003,-0.0035,-0.0041,-0.0047,-0.0051,-0.0054,-0.0056,-0.0055,-0.0055,-0.0053,-0.0051,-0.005,-0.0049,-0.0047,-0.0066,-0.0066,-0.0066,0,0,-0.0083,-0.0073,-0.0069,-0.0052,-0.0045,-0.0033,-0.0036,-0.0025,-0.0019,-0.0033,-0.0029,-0.0035,-0.0045,-0.0045,-0.0046,-0.0051,-0.0042,-0.005,-0.0049,-0.0048,-0.0048,-0.0046,-0.0045,-0.0065,-0.0066,-0.0066,0,0,-0.0078,-0.0073,-0.0061,-0.005,-0.0034,-0.0029,-0.0025,-0.0013,-0.0012,-0.0006,-0.0016,-0.0021,-0.0025,-0.0033,-0.0039,-0.0029,-0.0032,-0.0026,-0.0019,-0.0018,-0.0016,-0.0015,-0.0001,0.0001,-0.0027,-0.0027,-0.0027,0,-0.0083,-0.0065,-0.0056,-0.0041,-0.0032,-0.0026,-0.0013,-0.001,-0.0001,-0.0001,-0.0002,-0.0009,-0.002,-0.0027,-0.0023,-0.0027,-0.0019,-0.0029,-0.0016,-0.0015,-0.0014,0.0,0.0003,-0.0026,-0.0026,-0.0026,-0.0026,0,-0.0065,-0.0052,-0.0044,-0.0024,-0.0015,-0.0,0.0008,0.0013,0.0014,0.0016,0.0016,0.0005,-0.0,-0.0003,-0.0012,-0.001,-0.0003,-0.0014,-0.0024,-0.0012,0.0003,0.0005,-0.0025,-0.0025,-0.0026,-0.0026,0,0,-0.0069,-0.0037,-0.0034,-0.0022,-0.0004,0.0008,0.0014,0.0024,0.0028,0.0031,0.0036,0.0023,0.0019,0.0013,0.0002,0.0001,0.0014,-0.0001,-0.0001,0.001,0.0031,0.0061,0.0066,0.0007,0.0007,0.0007,0.0042,0,-0.0057,-0.0028,-0.0016,0.0008,0.0022,0.0028,0.0036,0.0042,0.0044,0.005,0.0037,0.0039,0.0024,0.0023,0.0019,0.0016,0.0019,0.0006,0.002,0.0021,0.0043,0.0069,0.0112,0.0149,0.0044,0.0044,0.0045,0,-0.0041,-0.0024,0.0001,0.0026,0.0033,0.0045,0.0057,0.0067,0.0069,0.007,0.0065,0.006,0.0056,0.0043,0.0044,0.004,0.0036,0.0035,0.0036,0.0061,0.0055,0.0118,0.0157,0.0106,0.0048,0.0048,0.0047,0,-0.0043,-0.0012,0.0008,0.0018,0.0044,0.0052,0.0065,0.0071,0.0083,0.0085,0.0094,0.0084,0.009,0.008,0.0079,0.0062,0.0092,0.0064,0.0089,0.0091,0.0129,0.0134,0.0117,0.0065,0.0065,0.0064,0.0064,0,-0.003,-0.0013,0.001,0.0023,0.0045,0.0059,0.0082,0.0088,0.0102,0.0125,0.0106,0.0124,0.01,0.0113,0.0098,0.0117,0.0107,0.0101,0.0103,0.0136,0.0141,0.0099,0.0063,0.0066,0.0065,0.0065,0.0065,0,-0.0024,-0.001,0.0015,0.004,0.0049,0.0066,0.0101,0.012,0.0127,0.0156,0.016,0.0164,0.0194,0.0183,0.0183,0.0153,0.0149,0.0163,0.0213,0.0221,0.0182,0.0145,0.0153,0.0139,0.0188,0.0189,0.019,0,-0.0014,-0.0001,0.0026,0.0043,0.0059,0.0086,0.011,0.0129,0.0154,0.0188,0.0208,0.024,0.0288,0.0305,0.0282,0.0283,0.0217,0.0278,0.0242,0.0197,0.0157,0.0133,0.0118,0.0301,0.0302,0.0304,0.0305,0,0.0007,0.0013,0.0035,0.0062,0.0088,0.0122,0.0159,0.0183,0.0216,0.0255,0.0319,0.0363,0.0395,0.044,0.0426,0.0394,0.0259,0.0305,0.0244,0.0237,0.0225,0.0208,0.0263,0.0317,0.0316,0.0315,0.0314,0.0314,0.0024,0.0039,0.0062,0.0088,0.0118,0.016,0.0204,0.0258,0.0321,0.0424,0.0434,0.0575,0.058,0.0589,0.0503,0.0389,0.0366,0.0344,0.0303,0.0283,0.0268,0.0358,0.0419,0.0419,0.0418,0.0418,0.0417,0,0.0047,0.0064,0.009,0.0125,0.0162,0.0174,0.0241,0.0308,0.0411,0.0563,0.0664,0.0822,0.0792,0.0705,0.0551,0.0419,0.0345,0.0336,0.0297,0.0279,0.0354,0.0356,0.0425,0.0425,0.0425,0.0425,0.0425,0.0425,0.0062,0.009,0.0099,0.0156,0.0187,0.0257,0.0305,0.0419,0.0556,0.0802,0.0985,0.1098,0.1042,0.0672,0.043,0.0364,0.0257,0.0259,0.0185,0.0214,0.0211,0.0207,0.02,0.0235,0.0235,0.0142,0.0141,0.014]}],[{"header":{"parameterUnit":"m.s-1","parameterCategory":2,"la1":30.2991,"la2":30.254,"lo1":-89.0895,"lo2":-89.0444,"dy":0.0017,"dx":0.0017,"nx":28,"ny":28,"refTime":"2024-03-14T09:00:00:Z","depth":"2","parameterNumber":2,"parameterNumberName":"U-component_of_CURRENTS"},"data":[0,0,0,0,0,0,0,0,0,0,0,0,0,0,0,0,0,0,0,0,0,0,0,0,0,0,0,0,0,0,0,0,0,0,0,0,0,0,0,0,0,0,0,0,0,0,0,0,0,0,0,0,0,0,0,0,0,0,0.1167,0.1167,0,0.1245,0.1246,0.1248,0.1256,0.1254,0.1253,0.1251,0.1258,0.1259,0.1261,0,0,0,0,0,0,0,0,0,0,0,0,0,0.116,0.116,0.1167,0.1167,0.1168,0.1245,0.1247,0.1249,0.1256,0.1254,0.1252,0.125,0.1257,0.1259,0.1261,0,0,0,0,0,0,0,0,0,0,0,0,0,0.1201,0.116,0.1167,0.1174,0.1174,0.1244,0.1247,0.1249,0.1257,0.1254,0.1252,0.1249,0.1256,0.1259,0.1262,0.1328,0,0,0.127,0.1271,0,0,0,0,0,0,0,0,0.1199,0.1203,0.1173,0.1173,0.1174,0.123,0.1246,0.1269,0.1257,0.1236,0.1251,0.1248,0.1237,0.1241,0.1276,0.1329,0.1329,0.127,0.1271,0.1273,0.1273,0,0,0,0,0,0,0,0.1196,0.12,0.1208,0.1173,0.1173,0.1217,0.1221,0.1252,0.1256,0.1237,0.1236,0.123,0.1238,0.1274,0.1276,0.1329,0.127,0.1272,0.1274,0.1275,0.137,0.1371,0,0,0,0,0,0,0.1163,0.1197,0.1205,0.1209,0.117,0.1218,0.1222,0.1222,0.1257,0.1258,0.1232,0.123,0.1271,0.1273,0.1276,0.1307,0.1273,0.1275,0.1277,0.1369,0.137,0.1371,0,0,0,0,0,0,0.1163,0.1163,0.1202,0.1197,0.1203,0.1219,0.122,0.1225,0.1263,0.1252,0.1252,0.1263,0.1269,0.1272,0.1273,0.1309,0.1276,0.1279,0.1368,0.1369,0.1371,0.1401,0,0,0,0,0,0,0.1162,0.1163,0.1174,0.1195,0.1202,0.1228,0.1222,0.1228,0.1258,0.1256,0.1279,0.1277,0.1267,0.1269,0.1276,0.1312,0.1281,0.1367,0.1369,0.137,0.1398,0.1403,0.1407,0,0,0,0,0,0.1162,0.1172,0.1174,0.1175,0.1209,0.1227,0.1237,0.1247,0.1262,0.1276,0.1273,0.1277,0.1286,0.1272,0.1279,0.1317,0.1366,0.1368,0.137,0.1397,0.1402,0.1407,0,0,0,0,0,0,0.117,0.1173,0.1176,0.1185,0.1198,0.1224,0.1247,0.1263,0.1286,0.1289,0.1285,0.1282,0.1293,0.1305,0.1289,0.1349,0.1331,0.1334,0.1348,0.1353,0.1357,0.1336,0.1283,0,0,0,0,0,0.1177,0.1186,0.1192,0.12,0.1211,0.1242,0.126,0.1268,0.1279,0.1291,0.1298,0.131,0.1317,0.1329,0.1331,0.1377,0.1384,0.1407,0.1411,0.1415,0.1402,0.1451,0.1458,0.1378,0.1378,0.1378,0,0,0.1181,0.1184,0.1189,0.1203,0.1226,0.1244,0.1249,0.1278,0.1291,0.1287,0.1316,0.132,0.1326,0.135,0.1361,0.1362,0.1442,0.1417,0.142,0.1406,0.1454,0.1462,0.1469,0.138,0.138,0.1379,0,0,0.1187,0.12,0.1212,0.1228,0.1249,0.1262,0.127,0.1303,0.1317,0.1343,0.1334,0.1348,0.1383,0.1382,0.139,0.1428,0.145,0.145,0.1473,0.1521,0.1527,0.1534,0.1555,0.1563,0.1468,0.1468,0.1468,0,0.1207,0.1203,0.1219,0.1237,0.1246,0.1268,0.1284,0.1311,0.1335,0.1352,0.1344,0.1392,0.1395,0.1421,0.1424,0.1438,0.1462,0.1453,0.1526,0.1532,0.1538,0.1559,0.1567,0.147,0.147,0.147,0.1469,0,0.1206,0.1222,0.1234,0.1256,0.1272,0.129,0.1308,0.1336,0.136,0.1385,0.1415,0.1417,0.1454,0.1462,0.1453,0.1504,0.1506,0.1514,0.1512,0.1548,0.1567,0.1575,0.1472,0.1472,0.1471,0.1471,0,0,0.1221,0.1233,0.1241,0.1254,0.1283,0.1298,0.1323,0.1352,0.1387,0.1414,0.1462,0.1465,0.1496,0.1504,0.1512,0.1538,0.1597,0.1549,0.1551,0.1567,0.1696,0.1644,0.1647,0.1633,0.1634,0.1635,0.1694,0,0.1226,0.124,0.1246,0.1274,0.1289,0.1316,0.1337,0.1372,0.1407,0.1463,0.1487,0.1527,0.1509,0.1539,0.1569,0.1572,0.162,0.1579,0.1661,0.1662,0.1609,0.1655,0.1482,0.1516,0.1702,0.1703,0.1704,0,0.1226,0.1235,0.1248,0.1283,0.1295,0.1318,0.1364,0.1393,0.1466,0.1501,0.1557,0.1585,0.1618,0.1616,0.1656,0.1638,0.1681,0.1681,0.1685,0.1626,0.1624,0.1511,0.1523,0.1717,0.1716,0.1715,0.1714,0,0.1209,0.1244,0.1245,0.1258,0.1298,0.1322,0.1354,0.1413,0.1446,0.1541,0.1584,0.1635,0.1682,0.1709,0.1731,0.1708,0.1785,0.1764,0.1757,0.1753,0.1612,0.1593,0.1836,0.1836,0.1835,0.1835,0.1835,0,0.1198,0.1216,0.1246,0.1254,0.1288,0.1326,0.1378,0.1422,0.1496,0.155,0.1618,0.1658,0.1715,0.1768,0.1769,0.1783,0.1835,0.1757,0.177,0.1617,0.1599,0.1774,0.1766,0.1837,0.1837,0.1836,0.1836,0,0.1175,0.119,0.1212,0.1256,0.128,0.1312,0.1388,0.1425,0.1497,0.1573,0.1605,0.17,0.174,0.1787,0.1846,0.1836,0.1843,0.1862,0.1665,0.1652,0.1761,0.1754,0.1812,0.1811,0.181,0.1809,0.1808,0,0.1157,0.1162,0.1208,0.123,0.1255,0.1312,0.1349,0.1424,0.1463,0.1574,0.1605,0.1695,0.1725,0.1783,0.1778,0.1782,0.1856,0.1663,0.1574,0.1755,0.1762,0.1757,0.1751,0.1402,0.1398,0.1394,0.1392,0,0.1136,0.1153,0.1163,0.1202,0.1245,0.1288,0.135,0.1374,0.1465,0.1495,0.1554,0.1581,0.1659,0.1581,0.163,0.1604,0.1624,0.1594,0.1865,0.1432,0.1372,0.1378,0.1385,0.1362,0.1365,0.1368,0.1369,0.137,0.1126,0.112,0.1137,0.117,0.1218,0.1255,0.1265,0.1316,0.1341,0.1358,0.1429,0.1398,0.1434,0.1364,0.1346,0.1355,0.1463,0.1391,0.14,0.1412,0.1352,0.1293,0.1256,0.1259,0.1261,0.1262,0.1264,0,0.1094,0.1092,0.1111,0.1136,0.1148,0.1213,0.1252,0.121,0.1199,0.1213,0.1204,0.1051,0.1004,0.1066,0.1027,0.1046,0.1017,0.1006,0.0951,0.0981,0.1007,0.0925,0.0717,0.0716,0.0714,0.0713,0,0,0.1075,0.1061,0.1054,0.1056,0.1088,0.1079,0.1086,0.1031,0.1002,0.0905,0.0864,0.088,0.0972,0.0794,0.0797,0.0758,0.0852,0.0715,0.1149,0.111,0.1134,0.1225,0.1131,0,0,0,0,0]},{"header":{"parameterUnit":"m.s-1","parameterCategory":2,"la1":30.2991,"la2":30.254,"lo1":-89.0895,"lo2":-89.0444,"dy":0.0017,"dx":0.0017,"nx":28,"ny":28,"refTime":"2024-03-14T09:00:00:Z","depth":"2","parameterNumber":3,"parameterNumberName":"V-component_of_CURRENTS"},"data":[0,0,0,0,0,0,0,0,0,0,0,0,0,0,0,0,0,0,0,0,0,0,0,0,0,0,0,0,0,0,0,0,0,0,0,0,0,0,0,0,0,0,0,0,0,0,0,0,0,0,0,0,0,0,0,0,0,0,0.0087,0.0087,0,0.0072,0.0072,0.0071,0.0051,0.0051,0.0051,0.0051,0.0022,0.0021,0.002,0,0,0,0,0,0,0,0,0,0,0,0,0,0.0061,0.0062,0.0087,0.0087,0.0087,0.0072,0.0072,0.0071,0.0051,0.0051,0.0051,0.0051,0.0022,0.0021,0.002,0,0,0,0,0,0,0,0,0,0,0,0,0,0.0058,0.0062,0.0087,0.0079,0.0078,0.0072,0.0072,0.0071,0.005,0.0051,0.0051,0.0051,0.0022,0.0021,0.002,0.001,0,0,0.0016,0.0015,0,0,0,0,0,0,0,0,0.0058,0.0058,0.008,0.0079,0.0079,0.0067,0.0052,0.0051,0.005,0.0056,0.0051,0.0051,0.0039,0.0036,0.0027,0.0008,0.0007,0.0016,0.0015,0.0015,0.0014,0,0,0,0,0,0,0,0.0058,0.0059,0.0076,0.008,0.008,0.0064,0.0063,0.0051,0.0043,0.0056,0.0055,0.0061,0.0038,0.0028,0.0026,0.0007,0.0016,0.0015,0.0014,0.0014,-0.0007,-0.0007,0,0,0,0,0,0,0.0072,0.0059,0.0077,0.0076,0.0074,0.0065,0.0064,0.0067,0.0043,0.0041,0.0061,0.006,0.003,0.0027,0.0025,0.0026,0.0015,0.0013,0.0013,-0.0007,-0.0007,-0.0007,0,0,0,0,0,0,0.0071,0.0073,0.0077,0.0071,0.0071,0.0066,0.0069,0.0067,0.0055,0.0049,0.0045,0.0052,0.003,0.0027,0.0023,0.0024,0.0013,0.0012,-0.0008,-0.0007,-0.0007,0.0018,0,0,0,0,0,0,0.007,0.0073,0.0072,0.0072,0.0072,0.0082,0.007,0.0067,0.0061,0.006,0.004,0.0038,0.003,0.0025,0.0022,0.0022,0.0011,-0.0008,-0.0008,-0.0007,0.0017,0.0019,0.0021,0,0,0,0,0,0.0069,0.0078,0.0072,0.0074,0.0074,0.0083,0.0081,0.0075,0.0061,0.0062,0.005,0.0038,0.0025,0.0025,0.0021,0.002,-0.0008,-0.0008,-0.0007,0.0016,0.0019,0.0021,0,0,0,0,0,0,0.0068,0.0077,0.0071,0.0081,0.0084,0.0082,0.0083,0.0073,0.0061,0.0058,0.0042,0.0039,0.0036,0.0025,0.0024,0.0016,0.0006,0.0005,0.0025,0.0027,0.0029,0.0057,0.001,0,0,0,0,0,0.0068,0.0075,0.0081,0.0088,0.0091,0.0082,0.0081,0.0078,0.0073,0.0067,0.0053,0.004,0.0034,0.0029,0.0022,0.0015,0.0015,0.0012,0.0014,0.0016,0.0036,0.0025,0.0028,-0.0005,-0.0005,-0.0005,0,0,0.007,0.0076,0.0079,0.0088,0.0086,0.0098,0.0081,0.0087,0.0092,0.0066,0.0063,0.0047,0.0035,0.0033,0.003,0.0024,0.0026,0.0017,0.0019,0.0038,0.0025,0.0029,0.0032,-0.0005,-0.0005,-0.0005,0,0,0.0086,0.0083,0.0095,0.01,0.0107,0.0106,0.0109,0.0104,0.0099,0.0097,0.008,0.007,0.0053,0.0048,0.0043,0.0051,0.0038,0.0041,0.0072,0.006,0.0063,0.0065,0.0073,0.0076,0.004,0.004,0.0041,0,0.0082,0.0103,0.01,0.0114,0.0124,0.0112,0.013,0.0124,0.0117,0.0117,0.0103,0.0083,0.0065,0.007,0.0074,0.0057,0.0055,0.0063,0.0063,0.0066,0.0068,0.0075,0.0078,0.0042,0.0042,0.0041,0.0041,0,0.0113,0.0124,0.0134,0.0148,0.0156,0.017,0.0172,0.0172,0.0159,0.0151,0.0149,0.0126,0.0114,0.0103,0.0093,0.0098,0.0094,0.0068,0.0059,0.0073,0.0079,0.0082,0.0044,0.0043,0.0043,0.0042,0,0,0.0114,0.0148,0.015,0.0165,0.0176,0.019,0.0202,0.0214,0.0226,0.0204,0.0217,0.0194,0.0172,0.0166,0.0142,0.0138,0.0144,0.0115,0.0113,0.0127,0.0135,0.0126,0.0128,0.0113,0.0114,0.0114,0.0134,0,0.0135,0.0176,0.0185,0.022,0.0241,0.024,0.0258,0.0263,0.0259,0.0265,0.0239,0.0237,0.0197,0.0191,0.0178,0.0157,0.0152,0.0143,0.0116,0.0116,0.0109,0.013,0.0144,0.0163,0.0137,0.0137,0.0138,0,0.0164,0.0187,0.0229,0.0266,0.0275,0.0291,0.0321,0.0335,0.0338,0.0334,0.032,0.0296,0.0287,0.0247,0.0221,0.0216,0.0182,0.0165,0.0164,0.0154,0.0112,0.0143,0.0168,0.0142,0.0142,0.0141,0.0141,0,0.018,0.022,0.0256,0.0267,0.0303,0.0319,0.0337,0.0351,0.0374,0.0374,0.039,0.0359,0.0353,0.031,0.0257,0.0239,0.0238,0.0197,0.0162,0.0161,0.0169,0.0168,0.018,0.018,0.018,0.018,0.018,0,0.0208,0.0235,0.0266,0.0285,0.033,0.0342,0.0387,0.0398,0.0424,0.0466,0.042,0.0456,0.0368,0.0348,0.029,0.0245,0.0252,0.0187,0.0168,0.0178,0.0178,0.0153,0.015,0.018,0.018,0.018,0.018,0,0.023,0.0248,0.029,0.0327,0.0339,0.0372,0.0423,0.0462,0.0475,0.0532,0.0535,0.0529,0.0512,0.043,0.0371,0.0293,0.0246,0.0222,0.0252,0.0235,0.0172,0.017,0.0193,0.0193,0.0193,0.0193,0.0193,0,0.0249,0.0273,0.032,0.0347,0.0365,0.041,0.0453,0.0483,0.0531,0.0595,0.0635,0.0627,0.0649,0.0557,0.0426,0.0323,0.0284,0.0244,0.0202,0.0196,0.0175,0.0173,0.017,0.0227,0.0227,0.0227,0.0228,0,0.0283,0.0298,0.0336,0.0391,0.0434,0.0492,0.0551,0.0601,0.0655,0.072,0.0813,0.0838,0.0742,0.0645,0.0468,0.0391,0.0257,0.0243,0.0237,0.0214,0.0227,0.0206,0.0203,0.0229,0.0229,0.0229,0.0229,0.0229,0.0307,0.0345,0.0392,0.0447,0.0496,0.0575,0.0641,0.0722,0.0826,0.0923,0.0939,0.0957,0.0819,0.06,0.0462,0.0285,0.03,0.0219,0.0218,0.0218,0.0211,0.0222,0.0224,0.0224,0.0223,0.0223,0.0223,0,0.0349,0.0393,0.0448,0.0523,0.0589,0.0599,0.0713,0.0799,0.0944,0.0987,0.1062,0.0915,0.0803,0.0622,0.0377,0.0245,0.0222,0.0182,0.0186,0.0187,0.0188,0.0178,0.0182,0.0181,0.0181,0.018,0,0,0.0376,0.0444,0.048,0.0592,0.0638,0.0739,0.0808,0.0941,0.1,0.1068,0.1037,0.1021,0.082,0.0622,0.0458,0.0315,0.0271,0.0279,0.0332,0.0361,0.0362,0.0237,0.0228,0,0,0,0,0]}],[{"header":{"parameterUnit":"m.s-1","parameterCategory":2,"la1":30.2991,"la2":30.254,"lo1":-89.0895,"lo2":-89.0444,"dy":0.0017,"dx":0.0017,"nx":28,"ny":28,"refTime":"2024-03-14T09:00:00:Z","depth":"4","parameterNumber":2,"parameterNumberName":"U-component_of_CURRENTS"},"data":[0,0,0,0,0,0,0,0,0,0,0,0,0,0,0,0,0,0,0,0,0,0,0,0,0,0,0,0,0,0,0,0,0,0,0,0,0,0,0,0,0,0,0,0,0,0,0,0,0,0,0,0,0,0,0,0,0,0,0.0446,0.0446,0,0.0449,0.0448,0.0448,0.0458,0.0459,0.0459,0.046,0.0552,0.0554,0.0556,0,0,0,0,0,0,0,0,0,0,0,0,0,0.0427,0.0427,0.0446,0.0446,0.0446,0.0449,0.0448,0.0448,0.0458,0.0459,0.0459,0.046,0.0551,0.0554,0.0556,0,0,0,0,0,0,0,0,0,0,0,0,0,0.0431,0.0427,0.0446,0.0453,0.0453,0.0449,0.0448,0.0448,0.0458,0.0459,0.0459,0.046,0.0551,0.0554,0.0557,0.0564,0,0,0.0566,0.0568,0,0,0,0,0,0,0,0,0.0431,0.0432,0.0451,0.0452,0.0453,0.0455,0.0476,0.0492,0.0458,0.0455,0.046,0.046,0.0529,0.0534,0.0529,0.0569,0.0573,0.0567,0.0569,0.057,0.0571,0,0,0,0,0,0,0,0.0431,0.0431,0.0445,0.0452,0.0453,0.0448,0.045,0.0478,0.0489,0.0455,0.0456,0.0459,0.053,0.0526,0.0532,0.0574,0.0567,0.0569,0.0571,0.0573,0.0659,0.0659,0,0,0,0,0,0,0.0434,0.0431,0.0445,0.0445,0.0445,0.0448,0.045,0.0452,0.0486,0.0492,0.0459,0.046,0.052,0.0528,0.0535,0.0592,0.057,0.0573,0.0575,0.0658,0.0659,0.0659,0,0,0,0,0,0,0.0434,0.0436,0.0445,0.044,0.0441,0.0448,0.0451,0.0452,0.0468,0.0489,0.0496,0.0475,0.0521,0.0531,0.0575,0.0594,0.0574,0.0577,0.0658,0.0659,0.0659,0.0676,0,0,0,0,0,0,0.0433,0.0435,0.044,0.044,0.0441,0.0452,0.0451,0.0452,0.0468,0.047,0.0505,0.0513,0.0522,0.057,0.0578,0.0598,0.058,0.0657,0.0658,0.0659,0.0675,0.0677,0.0679,0,0,0,0,0,0.0433,0.0432,0.044,0.0442,0.0447,0.0452,0.0452,0.0458,0.0469,0.0475,0.0501,0.0513,0.058,0.0573,0.0582,0.0604,0.0657,0.0658,0.0659,0.0674,0.0677,0.0679,0,0,0,0,0,0,0.0425,0.0433,0.0442,0.0445,0.0455,0.0455,0.046,0.0469,0.0492,0.0501,0.0524,0.0534,0.0579,0.0587,0.0579,0.0628,0.0618,0.0621,0.0627,0.063,0.0632,0.0626,0.0582,0,0,0,0,0,0.0426,0.043,0.0441,0.0445,0.0453,0.0463,0.0468,0.0473,0.0491,0.0501,0.0527,0.0554,0.0585,0.0605,0.0629,0.0661,0.0673,0.0677,0.0679,0.0681,0.0681,0.0712,0.0717,0.0662,0.0662,0.0662,0,0,0.0421,0.043,0.043,0.0444,0.0453,0.0462,0.0467,0.0478,0.0488,0.051,0.054,0.0569,0.0596,0.0629,0.0649,0.0642,0.0704,0.0682,0.0684,0.0683,0.0714,0.0719,0.0724,0.0663,0.0663,0.0663,0,0,0.0415,0.0428,0.0431,0.0441,0.0459,0.0467,0.0478,0.0492,0.0502,0.0532,0.0553,0.0587,0.0632,0.0648,0.0664,0.0691,0.0717,0.0709,0.0716,0.0746,0.0751,0.0755,0.0784,0.079,0.0706,0.0707,0.0707,0,0.0413,0.0419,0.0433,0.0441,0.045,0.0475,0.0483,0.0495,0.0521,0.0535,0.0544,0.0613,0.0634,0.0678,0.0686,0.0696,0.0724,0.0706,0.0749,0.0754,0.0758,0.0786,0.0793,0.0707,0.0707,0.0707,0.0707,0,0.0409,0.0418,0.0423,0.0444,0.0455,0.0466,0.0487,0.0506,0.0529,0.0543,0.0595,0.0624,0.0661,0.0679,0.0694,0.0741,0.0756,0.0752,0.0744,0.0765,0.0793,0.08,0.0709,0.0708,0.0708,0.0708,0,0,0.0397,0.0416,0.042,0.0428,0.0458,0.0465,0.0489,0.0515,0.0537,0.057,0.06,0.065,0.0673,0.0692,0.0722,0.0753,0.0805,0.0773,0.0774,0.0802,0.0889,0.0817,0.0818,0.0824,0.0826,0.0827,0.0898,0,0.0396,0.0406,0.0419,0.0433,0.0441,0.0468,0.0489,0.0516,0.0545,0.0579,0.0618,0.0663,0.0677,0.071,0.074,0.0797,0.0826,0.0787,0.0863,0.0864,0.08,0.0824,0.083,0.0904,0.0905,0.0906,0.0907,0,0.0391,0.0399,0.0409,0.0429,0.0437,0.0455,0.0496,0.0515,0.0564,0.059,0.0636,0.0672,0.0731,0.0734,0.0827,0.0813,0.0849,0.0885,0.0888,0.0818,0.0806,0.0877,0.0921,0.092,0.0919,0.0918,0.0917,0,0.0375,0.0392,0.0401,0.0407,0.0436,0.0454,0.048,0.0525,0.055,0.0606,0.0639,0.07,0.0747,0.0804,0.0871,0.0863,0.0973,0.0958,0.0926,0.0922,0.0958,0.0952,0.1012,0.1012,0.1012,0.1012,0.1011,0,0.0363,0.0367,0.0397,0.04,0.0419,0.0447,0.048,0.0511,0.0568,0.0598,0.065,0.0686,0.0773,0.084,0.0887,0.0931,0.098,0.0931,0.0935,0.0964,0.0958,0.0964,0.0957,0.1014,0.1014,0.1013,0.1013,0,0.0336,0.0355,0.0363,0.0398,0.041,0.0427,0.0482,0.0502,0.0565,0.0608,0.0633,0.0705,0.078,0.086,0.0955,0.0944,0.0996,0.0998,0.1035,0.1039,0.0922,0.0915,0.0958,0.0956,0.0955,0.0953,0.0952,0,0.0317,0.032,0.0358,0.0364,0.0382,0.0413,0.0432,0.0495,0.0517,0.0606,0.062,0.0713,0.0755,0.0839,0.0912,0.0992,0.0985,0.1,0.0943,0.0917,0.0916,0.0912,0.0908,0.095,0.0949,0.0949,0.0948,0,0.0278,0.0303,0.0314,0.0334,0.0354,0.0364,0.04,0.0418,0.0485,0.0555,0.0599,0.0649,0.0725,0.0792,0.0869,0.0917,0.0981,0.0982,0.0985,0.0932,0.0907,0.0907,0.0905,0.0943,0.0943,0.0944,0.0944,0,0.0256,0.026,0.0285,0.0298,0.0311,0.0305,0.0332,0.0363,0.0402,0.0509,0.0517,0.062,0.07,0.0754,0.082,0.0868,0.0851,0.0823,0.0834,0.0841,0.0771,0.0719,0.0703,0,0,0,0,0,0.0235,0.0236,0.0242,0.0249,0.0255,0.0265,0.0298,0.0329,0.0403,0.0419,0.0473,0.0539,0.0624,0.0673,0.0703,0.0768,0.0853,0.0798,0.0824,0.0911,0.0918,0.0846,0,0,0,0,0,0,0.0221,0.0225,0.0231,0.02,0.0195,0.0195,0.0214,0.0263,0.0278,0.0366,0.042,0.0497,0.0594,0.0611,0.0691,0.0711,0.0713,0.0871,0.0869,0.0907,0.0913,0.0918,0.0848,0,0,0,0,0]},{"header":{"parameterUnit":"m.s-1","parameterCategory":2,"la1":30.2991,"la2":30.254,"lo1":-89.0895,"lo2":-89.0444,"dy":0.0017,"dx":0.0017,"nx":28,"ny":28,"refTime":"2024-03-14T09:00:00:Z","depth":"4","parameterNumber":3,"parameterNumberName":"V-component_of_CURRENTS"},"data":[0,0,0,0,0,0,0,0,0,0,0,0,0,0,0,0,0,0,0,0,0,0,0,0,0,0,0,0,0,0,0,0,0,0,0,0,0,0,0,0,0,0,0,0,0,0,0,0,0,0,0,0,0,0,0,0,0,0,0.0171,0.0171,0,0.0179,0.0179,0.0179,0.0178,0.0178,0.0178,0.0178,0.016,0.0159,0.0159,0,0,0,0,0,0,0,0,0,0,0,0,0,0.0149,0.0149,0.0171,0.0171,0.0171,0.0179,0.0179,0.0179,0.0178,0.0178,0.0178,0.0178,0.016,0.0159,0.0159,0,0,0,0,0,0,0,0,0,0,0,0,0,0.0157,0.0149,0.0171,0.0172,0.0172,0.0179,0.0179,0.0179,0.0178,0.0178,0.0178,0.0178,0.016,0.0159,0.0159,0.0157,0,0,0.0157,0.0157,0,0,0,0,0,0,0,0,0.0157,0.0158,0.0172,0.0172,0.0172,0.0178,0.0164,0.017,0.0178,0.0175,0.0178,0.0178,0.0164,0.0163,0.0164,0.0156,0.0155,0.0157,0.0156,0.0156,0.0156,0,0,0,0,0,0,0,0.0156,0.0158,0.0173,0.0172,0.0172,0.017,0.0171,0.0165,0.0169,0.0176,0.0176,0.0178,0.0164,0.0165,0.0164,0.0155,0.0157,0.0156,0.0156,0.0156,0.0144,0.0144,0,0,0,0,0,0,0.0157,0.0157,0.0173,0.0174,0.0165,0.0171,0.0172,0.0176,0.017,0.0169,0.0178,0.0177,0.0166,0.0164,0.0163,0.0171,0.0156,0.0156,0.0155,0.0144,0.0144,0.0144,0,0,0,0,0,0,0.0156,0.0158,0.0173,0.0166,0.0168,0.0171,0.0176,0.0176,0.0179,0.0172,0.017,0.0181,0.0166,0.0164,0.0159,0.017,0.0155,0.0155,0.0144,0.0144,0.0144,0.0181,0,0,0,0,0,0,0.0156,0.0158,0.0162,0.0166,0.0168,0.018,0.0176,0.0176,0.018,0.018,0.0174,0.0172,0.0166,0.016,0.0159,0.0169,0.0154,0.0143,0.0144,0.0144,0.018,0.0182,0.0185,0,0,0,0,0,0.0155,0.0165,0.0162,0.0164,0.0173,0.018,0.0181,0.0183,0.0181,0.0185,0.0178,0.0172,0.016,0.016,0.0158,0.0168,0.0143,0.0144,0.0144,0.0179,0.0182,0.0185,0,0,0,0,0,0,0.0159,0.0166,0.0163,0.0174,0.0177,0.0181,0.0187,0.0185,0.0184,0.0183,0.0173,0.0171,0.017,0.0162,0.0162,0.0164,0.0151,0.015,0.0178,0.0181,0.0183,0.0198,0.0154,0,0,0,0,0,0.0161,0.017,0.0172,0.0181,0.0183,0.0184,0.0187,0.0188,0.0187,0.0187,0.0183,0.0175,0.0169,0.0169,0.0161,0.0164,0.0154,0.0168,0.017,0.0173,0.0182,0.0171,0.0174,0.0144,0.0144,0.0144,0,0,0.0165,0.017,0.0175,0.0182,0.0185,0.0195,0.0186,0.0194,0.0204,0.0184,0.0196,0.0183,0.017,0.0173,0.0172,0.0169,0.0175,0.0173,0.0175,0.0184,0.0172,0.0175,0.0178,0.0144,0.0144,0.0144,0,0,0.0181,0.0182,0.0194,0.0199,0.0204,0.0205,0.0208,0.0212,0.0215,0.0222,0.0208,0.0204,0.0198,0.0194,0.019,0.02,0.0185,0.0194,0.0225,0.0214,0.0217,0.0219,0.0209,0.021,0.0199,0.02,0.02,0,0.0186,0.0201,0.0198,0.0212,0.0221,0.0211,0.0227,0.023,0.0232,0.0239,0.023,0.0224,0.0211,0.0217,0.022,0.0208,0.0197,0.0216,0.0218,0.022,0.0222,0.0211,0.0212,0.0201,0.0201,0.0201,0.0201,0,0.0209,0.0222,0.0231,0.0245,0.0252,0.0265,0.0267,0.0275,0.0275,0.0277,0.0282,0.0265,0.0263,0.0256,0.0243,0.0249,0.0236,0.022,0.0214,0.0228,0.0215,0.0215,0.0204,0.0203,0.0203,0.0202,0,0,0.0219,0.0244,0.0247,0.0262,0.0273,0.0283,0.03,0.0315,0.033,0.0326,0.0345,0.0332,0.032,0.0314,0.0294,0.0288,0.0286,0.0263,0.0262,0.026,0.0262,0.0241,0.0238,0.0269,0.0269,0.027,0.0248,0,0.0239,0.0272,0.0279,0.0311,0.0329,0.0332,0.0351,0.0361,0.0365,0.0378,0.0364,0.0369,0.0342,0.0341,0.033,0.0296,0.0288,0.0293,0.0244,0.0243,0.0227,0.0239,0.027,0.0248,0.0248,0.0248,0.0248,0,0.026,0.028,0.0316,0.0351,0.0359,0.0379,0.0408,0.0424,0.0434,0.0437,0.0437,0.0421,0.0414,0.0385,0.0347,0.0351,0.0313,0.0285,0.0283,0.0253,0.0222,0.0231,0.0248,0.0248,0.0248,0.0248,0.0248,0,0.027,0.0308,0.034,0.0351,0.0385,0.0408,0.0428,0.0445,0.0468,0.0475,0.0489,0.0469,0.0465,0.042,0.0364,0.0355,0.0317,0.0295,0.0241,0.0239,0.0249,0.0246,0.0268,0.0268,0.0268,0.0268,0.0268,0,0.029,0.0317,0.0351,0.0369,0.0413,0.0429,0.0476,0.0488,0.0514,0.0542,0.0521,0.0533,0.0474,0.0443,0.0382,0.0316,0.033,0.0253,0.0235,0.0264,0.0263,0.0248,0.0246,0.0267,0.0268,0.0268,0.0268,0,0.0299,0.032,0.036,0.0403,0.0421,0.0454,0.0514,0.0547,0.0562,0.0598,0.0604,0.0587,0.0548,0.0484,0.041,0.0345,0.028,0.025,0.0294,0.0277,0.0203,0.0204,0.0191,0.019,0.0189,0.0189,0.0188,0,0.0307,0.0329,0.0382,0.041,0.0435,0.0488,0.053,0.0568,0.0601,0.063,0.0647,0.0626,0.0602,0.0493,0.0413,0.0301,0.0275,0.0231,0.0211,0.0214,0.0197,0.0198,0.0199,0.0187,0.0187,0.0187,0.0186,0,0.0322,0.0342,0.0371,0.0428,0.0479,0.0539,0.0597,0.0625,0.0666,0.0681,0.0684,0.063,0.0583,0.0493,0.0407,0.0322,0.0255,0.0223,0.0224,0.0204,0.0208,0.0193,0.0195,0.0184,0.0184,0.0185,0.0185,0,0.0331,0.0354,0.0394,0.0446,0.0508,0.0573,0.0606,0.065,0.0687,0.0708,0.0707,0.0657,0.0628,0.0504,0.0426,0.0342,0.0309,0.0258,0.0256,0.0258,0.0276,0.0291,0.0283,0,0,0,0,0,0.0339,0.0368,0.0411,0.0473,0.0534,0.0578,0.0644,0.0672,0.0708,0.0712,0.0709,0.0665,0.055,0.0508,0.0422,0.0402,0.029,0.0293,0.023,0.0169,0.0172,0.0179,0,0,0,0,0,0,0.0345,0.0387,0.0409,0.0487,0.0533,0.0614,0.066,0.0686,0.0688,0.0701,0.0651,0.062,0.0521,0.0604,0.0415,0.039,0.033,0.0246,0.0243,0.0168,0.0171,0.0173,0.018,0,0,0,0,0]}]]